Regional Weather Roundup
Issued by NWS

Home | Current Version | Previous Version | Text Only | Print | Product List | Glossary Off
Versions: 1 2 3 4 5 6 7 8 9 10 11 12 13 14 15 16 17 18 19 20 21 22 23 24 25 26 27 28 29 30 31 32 33 34 35 36 37 38 39 40 41 42 43 44 45 46 47 48 49 50

000
ASUS43 KLMK 170902
RWRKY
KENTUCKY REGIONAL WEATHER ROUNDUP
NATIONAL WEATHER SERVICE LOUISVILLE KY
500 AM EDT THU APR 17 2014

NOTE "FAIR" INDICATES FEW OR NO CLOUDS BELOW 12,000 FEET
WITH NO SIGNIFICANT WEATHER AND/OR OBSTRUCTIONS TO VISIBILITY.

KYZ001>023-026-027-061>063-070>075-171000-
WESTERN AND SOUTH CENTRAL KENTUCKY

CITY           SKY/WX    TMP DP  RH WIND       PRES   REMARKS
PADUCAH        CLEAR     42  31  64 SE3       30.20R
HENDERSON      PTCLDY    39  28  65 SE3       30.22R
OWENSBORO      CLEAR     42  29  60 CALM      30.23R
HOPKINSVILLE   CLEAR     46  32  57 SE7       30.23R
BOWLING GREEN  CLEAR     46  30  53 CALM      30.27R
GLASGOW        NOT AVBL
$$

KYZ024-025-028>034-038-045-046-053-171000-
NORTH CENTRAL KENTUCKY

CITY           SKY/WX    TMP DP  RH WIND       PRES   REMARKS
LOUISVILLE/SDF CLOUDY    42  27  55 SE7       30.26R
LOUISVILLE/LOU PTCLDY    44  27  51 CALM      30.27R
FORT KNOX      PTCLDY    40  27  61 SE2       30.25R
$$

KYZ035>037-039>044-047>052-055>060-089>105-171000-
NORTHEAST KENTUCKY

CITY           SKY/WX    TMP DP  RH WIND       PRES   REMARKS
LEXINGTON      PTCLDY    42  24  49 SE9       30.28R
COVINGTON      PTCLDY    39  23  52 SE6       30.27R WCI  35
FRANKFORT      PTCLDY    35  27  72 CALM      30.27R
$$

KYZ054-064>069-076>088-106>120-171000-
SOUTHEAST KENTUCKY

CITY           SKY/WX    TMP DP  RH WIND       PRES   REMARKS
JACKSON        CLEAR     43  21  41 S5        30.31R
LONDON         CLEAR     37  29  72 S3        30.32R
SOMERSET       NOT AVBL
MIDDLESBORO    NOT AVBL
MONTICELLO     MOSUNNY   42  30  62 S8        30.32R
$$




USA.gov is the U.S. government's official web portal to all federal, state and local government web resources and services.